Domov               UVHVVR             MKGP            O straneh              
ZDRAVSTVENO VARSTVO RASTLIN
  MREŽA AGROMET. POSTAJ
 ► PROGNOSTIČNA OBVESTILA
AGROMETEOROLOŠKI PODATKI -
ARSO
OBVLADOVANJE TVEGANJ ZARADI
NEUGODNIH VREMENSKIH RAZMER
  ► NARAVNE NESREČE
  ► SUŠA/MOČA
  ► NAMAKANJE
  ► ŽLED (gozdarstvo)
KARTOGRAFSKI PRIKAZI
SPLETNE POVEZAVE
PROJEKTI IN PUBLIKACIJE

AGROMETEOROLOŠKA MREŽA: VREMENSKE POSTAJE IN FENOLOŠKA OPAZOVANJA

Pregled podatkov za lokacijo Artiče, meteorološka postaja 42800

Pregled senzorjev na lokaciji

ID Ime Zadnja
vrednost
Datum
zadnje
spremembe
Tip
senzorja
4298 Omočenost lista (U) 9 U 17.10.2018 04:29 A730WET
3778 Padavine (mm) 0 mm 17.10.2018 04:30 Rain-O-Matic
2447 Relativna vlaga 2 m (% RH) 100 % RH 17.10.2018 04:30 50YA
2446 Temperatura 2 m (°C) 11,12 °C 17.10.2018 04:30 50YA

Pregled podatkov zadnjih 24 ur

Zap.
št.
Datum in čas Artiče
Omočenost
lista
Padavine Relativna
vlaga
2
m
Temperatura
2
m
1 17.10.2018 05:30
2 17.10.2018 05:00
3 17.10.2018 04:30
4 17.10.2018 04:00
5 17.10.2018 03:30 9 0 100 11,1
6 17.10.2018 03:00 9 0 100 11,2
7 17.10.2018 02:30 9 0 100 11,3
8 17.10.2018 02:00 9 0 100 11,4
9 17.10.2018 01:30 9 0 99,9 11,5
10 17.10.2018 01:00 9 0 99,6 11,6
11 17.10.2018 00:30 9 0 99,7 11,9
12 17.10.2018 00:00 9 0 99,5 12,1
13 16.10.2018 23:30 9 0 98,8 11,9
14 16.10.2018 23:00 9 0 97,8 12,2
15 16.10.2018 22:30 10 0 98 12,3
16 16.10.2018 22:00 10 0 96,4 12,6
17 16.10.2018 21:30 10 0 96,4 12,8
18 16.10.2018 21:00 10 0,2 96,5 12,9
19 16.10.2018 20:30 10 0 93,7 13,3
20 16.10.2018 20:00 10 0 92,6 13,4
21 16.10.2018 19:30 10 0 91,4 13,7
22 16.10.2018 19:00 10 0 91,3 13,7
23 16.10.2018 18:30 8 0 90,1 13,9
24 16.10.2018 18:00 1 0 88,8 14,2
25 16.10.2018 17:30 0 0 87,4 14,5
26 16.10.2018 17:00 0 0 85,4 15
27 16.10.2018 16:30 0 0 81,1 15,5
28 16.10.2018 16:00 0 0 78,5 16
29 16.10.2018 15:30 0 0 76,7 16,2
30 16.10.2018 15:00 0 0 74,3 16,4
31 16.10.2018 14:30 0 0 70,4 16,6
32 16.10.2018 14:00 0 0 70,2 16,6
33 16.10.2018 13:30 0 0 69,3 16,4
34 16.10.2018 13:00 0 0 68,1 16,4
35 16.10.2018 12:30 0 0 72,3 16,4
36 16.10.2018 12:00 0 0 76,1 15,7
37 16.10.2018 11:30 0 0 78,6 15,6
38 16.10.2018 11:00 0 0 81,8 15,5
39 16.10.2018 10:30 0 0 85,8 14,5
40 16.10.2018 10:00 1 0 90,1 13,8
41 16.10.2018 09:30 8 0 98,1 12,7
42 16.10.2018 09:00 10 0 100 12,1
43 16.10.2018 08:30 10 0 100 11,8
44 16.10.2018 08:00 10 0 100 11,2
45 16.10.2018 07:30 10 0 100 10,5
46 16.10.2018 07:00 10 0 100 10,4
47 16.10.2018 06:30 10 0 100 10,4
48 16.10.2018 06:00 10 0 100 10,6
© 2011 Ministrstvo za kmetijstvo, gozdarstvo in prehrano. Vse pravice pridržane.